Aviation WX

[Source: ADDS]
METAR
KFKL 301435Z 16006KT 10SM CLR 20/15 A3005 RMK AO1 =
TAF
KFKL 301138Z 3012/0112 13008KT P6SM BKN250 FM301500 15008KT P6SM BKN035 FM301800 17009KT P6SM VCTS BKN045CB FM010000 15010KT P6SM SCT250 AMD LTD TO CLD VIS AND WIND =

Fuel Services

We have Avgas 100LL and Jet A premixed w/additive . Jet A can be delivered single point, or over the wing.  Quick Turn Around fueling is available, and we can do Hot Fueling of turbine helicopters by prior arrangement. 

Full service fueling is available during attended hours, or self serve after hours. 

If you would rather not pump the fuel yourself, after hours call out service is available at:

Don Kimbal 814-538-9993

 

Services

If you need fuel or services after hours, you may use our self-service fuel system, or we will arrange to have someone meet you.

Need a rental car? We can have one waiting for you when you arrive. If you need to stay
overnight, we have a heated hangar available, and there are several motels with pickup service within 4 miles of the airport. Find out who we can service you with by checking out our Links
.


  Fuel Availablility:
Attended hours or 
24 hours by request

Fuel Prices: Please check current  fuel prices at: http://www.airnav.com/airport/KAXQ/A

Discounts:

Quantity purchases by month

EPIC-Logo

Flight Training

Aircraft Rental

Hangars

Laser Grade FAA/FCC Computer Testing Center